Regional Weather Roundup
Issued by NWS Upton, NY

Current Version | Previous Version | Graphics & Text | Print | Product List | Glossary Off
Versions: 1 2 3 4 5 6 7 8 9 10 11 12 13 14 15 16 17 18 19 20 21 22 23 24 25 26 27 28 29 30 31 32 33 34 35 36 37 38 39 40 41 42 43 44 45 46 47 48 49 50

000
ASUS41 KOKX 071608
RWROKX

REGIONAL WEATHER ROUNDUP
NATIONAL WEATHER SERVICE NEW YORK NY
1100 AM EST WED DEC 07 2016

NOTE: "FAIR" INDICATES FEW OR NO CLOUDS BELOW 12,000 FEET WITH NO
SIGNIFICANT WEATHER AND/OR OBSTRUCTIONS TO VISIBILITY.

NYZ071-072-176-178-NJZ106-104-071700-
NEW YORK CITY METRO AREA

CITY           SKY/WX    TMP DP  RH WIND       PRES   REMARKS
Central Park   CLOUDY    41  37  86 CALM      30.01F
Wall St Helipt CLOUDY    44  41  89 CALM      30.00F
Bronx Bot Gard   N/A     41  37  87 E3        30.00
LaGuardia APRT DRIZZLE   43  38  82 NE5       29.99F
Kennedy INTL   DRIZZLE   44  39  82 N6        30.00F
Breezy Point     N/A     41 N/A N/A N3          N/A
Newark/Liberty CLOUDY    42  40  92 N3        30.00F
Teterboro      DRIZZLE   41  37  86 NW5       29.99F FOG
$$

NYZ177-179-078>081-071700-
LONG ISLAND NEW YORK

CITY           SKY/WX    TMP DP  RH WIND       PRES   REMARKS
Jones Beach      N/A     43 N/A N/A N5          N/A
Matinecock PT    N/A     41 N/A N/A NE6         N/A
Farmingdale    CLOUDY    44  41  89 N7        29.98F
MacArthur/ISP  CLOUDY    44  40  85 NE6       29.96F
Shirley        CLOUDY    44  41  89 VRB5      29.98F
Westhampton    CLOUDY    43  39  86 NE9       29.99F
Southampton      N/A     43  41  93 NE5       29.95
Bridgehampton  NOT AVBL
East Hampton   CLOUDY    42  39  90 NE6       29.97F
Montauk          N/A     43  40  89 NE6       29.98F
$$

NYZ052-065-067-071700-
HUDSON VALLEY

CITY           SKY/WX    TMP DP  RH WIND       PRES   REMARKS
White Plains   CLOUDY    40  37  89 CALM      29.97F
Newburgh       CLOUDY    36  36 100 CALM      29.99F FOG
Montgomery     CLOUDY    37  36  96 S5        29.97F WCI  33
Poughkeepsie   CLOUDY    37  35  92 CALM      29.98F
Albany         CLOUDY    35  33  92 S7        29.96F WCI  29
$$

NJZ001-105-106-008-010-013-015-019>022-104-071700-
NEW JERSEY

CITY           SKY/WX    TMP DP  RH WIND       PRES   REMARKS
Newark/Liberty CLOUDY    42  40  92 N3        30.00F
Teterboro      DRIZZLE   41  37  86 NW5       29.99F FOG
Caldwell       CLOUDY    41  37  86 CALM      30.00F
Somerville     CLOUDY    42  37  82 NW5       29.98F
Linden         CLOUDY    41  39  93 N5        29.99F FOG
Sussex         CLOUDY    38  36  92 CALM      29.98F
Andover          N/A     37  35  92 CALM      29.98F
Trenton        CLOUDY    42  39  89 N5        29.99F
Millville      CLOUDY    44  43  96 N6        30.00F
Atlantic City  CLOUDY    43  41  93 NW10      30.00S FOG
Wrightstown    CLOUDY    41  40  96 N5        29.97F
Toms River     CLOUDY    42  41  96 NW8       30.00S FOG
Belmar         CLOUDY    41  40  96 NW9       30.00F FOG
$$

PAZ047>061-062-071-071700-
EASTERN PENNSYLVANIA

CITY           SKY/WX    TMP DP  RH WIND       PRES   REMARKS
Philadelphia   PTSUNNY   45  40  82 NW7       30.01F
Allentown      CLOUDY    42  38  85 W5        30.00F
Scranton       PTSUNNY   39  36  89 SW6       29.96F WCI  35
$$

CTZ002-004>006-009-010-012-RIZ004-006-007-MAZ004-011-015-071700-
SOUTHERN NEW ENGLAND
 IN CT

CITY           SKY/WX    TMP DP  RH WIND       PRES   REMARKS
Bradley INTL   CLOUDY    39  35  86 CALM      29.98F
Hartford       CLOUDY    39  36  89 CALM      29.99F
Danbury        CLOUDY    38  36  92 CALM      29.98F
Wtrbury/Oxford CLOUDY    37  34  87 CALM      29.98F
Bridgeport     MOSUNNY   43  36  75 CALM      30.00F
Meriden        CLOUDY    40  35  83 NW5       29.99F
New Haven      PTSUNNY   42  38  85 E3        29.98F
Chester        CLOUDY    39  37  93 CALM      29.97F
Groton         CLOUDY    46  40  79 NE5       29.98F
Wilimantic     CLOUDY    42  37  82 CALM      29.98F

 IN RI

CITY           SKY/WX    TMP DP  RH WIND       PRES   REMARKS
Providence     CLOUDY    40  37  89 N3        29.99F
Block Island   CLOUDY    42  39  89 NE8       29.97F
Westerly       CLOUDY    43  38  82 N7        29.98F
 IN MA

CITY           SKY/WX    TMP DP  RH WIND       PRES   REMARKS
Boston         CLOUDY    38  37  97 NW7       30.00S FOG     WCI  33
Worcester      CLOUDY    35  32  88 CALM      29.96F
Westfield      CLOUDY    36  36 100 CALM      29.97F FOG
Provincetown   CLOUDY    42  40  92 NE5       29.98S FOG
Nantucket      LGT RAIN  44  41  89 N9        29.95R FOG
$$

ANZ330-335-338-340-345-350-353-355-071700-
COASTAL MARINE OBSERVATIONS


STATION/POSITION TIME  SKY/WX   TEMP    WIND        PRES    VSBY  WAVE
                                AIR SEA DIR/SP/G                  HT/PER
                 (UTC)          (F)     (DEG/KT/KT) (MB)    (MI)  (FT/S)
NY HARB ENTRANCE 1450            44 53   30/  8/ 12 1015.5          7/ 8
20 S FIRE ISLAND 1450            46 54   20/ 14/ 17 1015.1          8/ 7
GREAT SOUTH BAY  1515            42 43                N/A
23 SSW MONTAUK P 1550            47 54   50/  8/ 10 1014.9          6/ 7
15 E BARNEGAT LI 1530               54                N/A           9/ 8
HUDSON CANYON    1450            51 58              1013.8         10/ 8
KINGS POINT      1530            40 48              1015.7
EXECUTION ROCKS  1545            41     360/  4/  8   N/A
CENTRAL LI SOUND 1530            42 50   60/  6/  8   N/A           2/ 4
EASTERN LI SOUND NOT AVBL
ROBBINS REEF     1530            40     340/  7/  9 1016.3
$$


>>>>>>>>>>>>>>>>>>>>>>>>>>>> KEY <<<<<<<<<<<<<<<<<<<<<<<<<<<
>                                                          <
>     SKY/WX - Sky Condition/Present Weather               <
>     TMP    - Temperature in Fahrenheit                   <
>     DP     - Dew Point in Fahrenheit                     <
>     RH     - Relative Humidity in Percent                <
>     WIND   - Direction (from) and Speed in MPH           <
>     PRES   - Mean Sea Level Pressure (inches of Hg)      <
>     WCI    - Wind Chill Index                            <
>     VSB    - VISIBILITY IN MILES                         <
>     HX     - HEAT INDEX                                  <
>     TC     - TEMPERATURE IN CELSIUS                      <
>     VRB    - VARIABLE WIND DIRECTION                     <
>                                                          <
>>>>>>>>>>>>>>>>>>>>>>>>>>>> KEY <<<<<<<<<<<<<<<<<<<<<<<<<<<



USA.gov is the U.S. government's official web portal to all federal, state and local government web resources and services.